TimeMDT,TemperatureF,Dew PointF,Humidity,Sea Level PressureIn,VisibilityMPH,Wind Direction,Wind SpeedMPH,Gust SpeedMPH,PrecipitationIn,Events,Conditions,WindDirDegrees,DateUTC
12:53 AM,66.0,48.0,52,29.92,10.0,NW,15.0,-,N/A,,Clear,320,2013-08-08 06:53:00
1:53 AM,64.9,48.9,56,29.90,10.0,West,4.6,-,N/A,,Clear,260,2013-08-08 07:53:00
2:53 AM,62.1,50.0,65,29.90,10.0,Calm,Calm,-,N/A,,Clear,0,2013-08-08 08:53:00
3:53 AM,62.1,50.0,65,29.89,10.0,ENE,5.8,-,N/A,,Partly Cloudy,60,2013-08-08 09:53:00
4:53 AM,63.0,50.0,63,29.89,10.0,North,8.1,-,N/A,,Scattered Clouds,350,2013-08-08 10:53:00
5:53 AM,63.0,48.9,60,29.92,10.0,NNE,3.5,-,N/A,,Scattered Clouds,20,2013-08-08 11:53:00
6:53 AM,61.0,51.1,70,29.95,10.0,Calm,Calm,-,N/A,,Partly Cloudy,0,2013-08-08 12:53:00
7:53 AM,63.0,51.1,65,29.94,10.0,Calm,Calm,-,N/A,,Partly Cloudy,0,2013-08-08 13:53:00
8:53 AM,66.0,50.0,56,29.96,10.0,Calm,Calm,-,N/A,,Mostly Cloudy,0,2013-08-08 14:53:00
9:53 AM,68.0,48.9,50,29.96,10.0,Calm,Calm,-,N/A,,Mostly Cloudy,0,2013-08-08 15:53:00
10:53 AM,69.1,48.9,49,29.96,10.0,Calm,Calm,-,N/A,,Scattered Clouds,0,2013-08-08 16:53:00
11:53 AM,73.0,48.0,41,29.93,10.0,Calm,Calm,-,N/A,,Clear,0,2013-08-08 17:53:00
12:53 PM,75.0,48.0,38,29.91,10.0,WSW,6.9,-,N/A,,Clear,250,2013-08-08 18:53:00
1:53 PM,79.0,48.0,34,29.88,10.0,WSW,4.6,-,N/A,,Clear,250,2013-08-08 19:53:00
2:53 PM,82.9,46.0,27,29.85,10.0,WNW,9.2,-,N/A,,Clear,290,2013-08-08 20:53:00
3:53 PM,84.9,41.0,21,29.82,10.0,WNW,15.0,-,N/A,,Clear,300,2013-08-08 21:53:00
4:53 PM,84.0,37.9,19,29.82,10.0,WNW,11.5,-,N/A,,Clear,290,2013-08-08 22:53:00
5:53 PM,84.0,36.0,18,29.83,10.0,West,10.4,-,N/A,,Partly Cloudy,270,2013-08-08 23:53:00
6:53 PM,75.9,45.0,33,29.89,10.0,SE,16.1,-,N/A,,Partly Cloudy,130,2013-08-09 00:53:00
7:53 PM,73.9,46.0,37,29.92,10.0,ESE,13.8,25.3,N/A,,Partly Cloudy,110,2013-08-09 01:53:00
8:05 PM,73.4,44.6,36,30.10,10.0,East,11.5,-,N/A,Thunderstorm,Thunderstorm,100,2013-08-09 02:05:00
8:53 PM,70.0,51.1,51,29.95,6.0,Calm,Calm,-,0.01,Rain,Rain,0,2013-08-09 02:53:00
9:53 PM,69.1,48.0,47,29.94,10.0,East,11.5,-,0.00,,Clear,100,2013-08-09 03:53:00
10:53 PM,66.9,48.0,51,29.95,10.0,ESE,12.7,-,N/A,,Clear,120,2013-08-09 04:53:00
11:53 PM,66.9,48.9,52,29.94,10.0,SE,11.5,-,N/A,,Clear,140,2013-08-09 05:53:00